Regional Weather Roundup
Issued by NWS

Home | Current Version | Previous Version | Text Only | Print | Product List | Glossary On
Versions: 1 2 3 4 5 6 7 8 9 10 11 12 13 14 15 16 17 18 19 20 21 22 23 24 25 26 27 28 29 30 31 32 33 34 35 36 37 38 39 40 41 42 43 44 45 46 47 48 49 50
000
ASUS43 KMPX 290910
RWRMN
WEATHER ROUNDUP FOR MINNESOTA
NATIONAL WEATHER SERVICE TWIN CITIES/CHANHASSEN MN
400 AM CDT SAT AUG 29 2015


NOTE: "FAIR" INDICATES FEW OR NO CLOUDS BELOW 12,000 FEET WITH NO
SIGNIFICANT WEATHER AND/OR OBSTRUCTIONS TO VISIBILITY. N/A MEANS
CURRENT SKY AND/OR WEATHER CONDITIONS ARE NOT AVAILABLE.

MNZ060>063-068>070-291000-
   Twin Cities Metro

CITY           SKY/WX    TMP DP  RH WIND       PRES   REMARKS
TWIN CITIES    CLEAR     58  55  90 E5        30.03S
ST PAUL        CLEAR     57  55  93 E5        30.04R
CRYSTAL        CLEAR     57  54  89 CALM      30.02S
BLAINE         PTCLDY    55  55 100 CALM      30.03F
LAKEVILLE      MOCLDY    52  52 100 CALM      30.03S FOG
EDEN PRAIRIE   CLEAR     58  55  90 NE3       30.02S
SOUTH ST PAUL  CLEAR     57  55  91 CALM      30.03S
LAKE ELMO      FAIR      54  54 100 CALM      30.04F FOG
$$
MNZ001>005-007-008-013>017-022>024-027-028-291000-
   Northwest Minnesota

CITY           SKY/WX    TMP DP  RH WIND       PRES   REMARKS
BEMIDJI        PTCLDY    63  61  94 SW8       29.95F
HALLOCK        CLEAR     64  63  94 SE5       29.88S FOG
ROSEAU         CLEAR     64  59  82 S5        29.92S HAZE
WARROAD        CLEAR     64  61  88 SW3       29.92S
THIEF RVR FALL CLEAR    N/A N/A N/A S7        29.92R
CROOKSTON      CLEAR     64  63  94 S9        29.91S
FOSSTON        CLEAR     61  59  94 S10       29.94S
DETROIT LAKES  CLEAR     63  61  94 S7        29.98S
MOORHEAD       CLEAR     63  61  94 S12       29.94F
PARK RAPIDS    PTCLDY    62  59  90 S6        29.99S
MAHNOMEN       FAIR      62  60  93 S9        29.95S
$$
MNZ006-009>011-018-025>026-291000-
   North Central Minnesota

CITY           SKY/WX    TMP DP  RH WIND       PRES   REMARKS
BAUDETTE       CLEAR     64  62  93 S5        29.91S
FLAG ISLAND    CLEAR     66  64  94 CALM      29.90S
INTL FALLS     CLOUDY    67  64  90 S3        29.93S
WASKISH        PTCLDY    64  63  94 CALM      29.94S
BIG FORK       CLOUDY    63  61  94 SW6       29.97R
LONGVILLE      MOCLDY    63  59  88 S5        29.98S
GRAND RAPIDS     N/A     61  57  88 S6        30.00R
CRANE LAKE     CLOUDY    59  57  94 S5        29.96S
COOK           CLOUDY    63  61  94 SE7       30.00R
WALKER         FAIR      61  60  94 SW7       29.97S
$$
MNZ012-019>021-037-291000-
   Northeast Minnesota

CITY           SKY/WX    TMP DP  RH WIND       PRES   REMARKS
DULUTH         CLOUDY    59  56  89 NE16      30.10R THUNDER
ELY            CLOUDY    57  55  94 SW6       30.00R
HIBBING        CLOUDY    64  59  83 S7        30.02R
EVELETH        CLOUDY    59  59 100 S6        30.03S
DULUTH HARBOR  CLOUDY    63  57  82 S5        30.05R
TWO HARBORS    TSTM      63  57  82 S8G20     30.03F
SILVER BAY     TSTM      59  57  94 S10       30.01F
GRAND MARAIS     N/A     59  58  96 W10G24    29.96F
G MARAIS ARPRT CLOUDY    57  54  88 SW5       30.00R
$$
MNZ029>031-032-039>041-046>048-054>057-064-291000-
   West Central Minnesota

CITY           SKY/WX    TMP DP  RH WIND       PRES   REMARKS
FERGUS FALLS   CLEAR     61  61 100 S8        29.98S
WHEATON        CLEAR     57  55  94 SE8       29.99R
MORRIS         CLEAR     57  55  94 S7        29.99S
ALEXANDRIA     CLEAR     59  56  89 S7        30.02R
ELBOW LAKE     FAIR      58  57  96 S8        29.99S
WADENA         CLEAR     57  57 100 SE3       30.00S
GLENWOOD       CLEAR     55  54  94 S5        30.02S
APPLETON       CLEAR     57  55  94 S5        30.00R
BENSON         CLEAR     54  52  94 S3        30.01S
ORTONVILLE     CLEAR     57  55  94 SE5       29.99R
MADISON        CLEAR     55  54  94 CALM      30.01R
WILLMAR        MOCLDY    54  52  94 SE3       30.03F FOG
$$
MNZ033>034-036-042>043-049>051-058-059-291000-
   Central Minnesota

CITY           SKY/WX    TMP DP  RH WIND       PRES   REMARKS
ST CLOUD       CLEAR     53  53 100 SE5       30.03R FOG
SAUK CENTRE    FAIR      55  54  99 CALM      30.03R
PAYNESVILLE    CLEAR     57  55  92 CALM      30.03S
AITKIN         MOCLDY    61  55  82 S5        30.00R
PINE RIVER     PTCLDY    59  59 100 S3        30.03S
BRAINERD       PTCLDY    57  56  96 S5        30.02S
STAPLES        CLEAR     57  55  94 S3        30.00S
LONG PRAIRIE   CLOUDY    54  54 100 S5        30.02S
LITTLE FALLS   MOCLDY    54  52  94 SE3       30.02S
LITCHFIELD     CLEAR     54  54 100 CALM      30.03F
BUFFALO        CLEAR     54  52  92 CALM      30.04S
MAPLE LAKE     FOG       55  55  98 CALM      30.04S VSB 1/2
$$
MNZ037-044-045-052-053-291000-
   East Central Minnesota

CITY           SKY/WX    TMP DP  RH WIND       PRES   REMARKS
PRINCETON      MOCLDY    54  52  94 CALM      30.04S FOG
MORA             N/A     54  52  94 CALM      30.05S FOG
CAMBRIDGE      CLEAR     57  52  82 CALM      30.02S
RUSH CITY      MOCLDY    55  53  96 S3        30.04S
MOOSE LAKE     PTCLDY    55  54  94 CALM      30.03R
HINCKLEY       FAIR      55  55 100 CALM      30.04R
CLOQUET        CLOUDY    57  55  94 S5        30.04S
MCGREGOR       MOCLDY    59  55  88 SE3       30.02R
$$
MNZ071>073-080-081-089-090-097-098-291000-
   Southwest Minnesota

CITY           SKY/WX    TMP DP  RH WIND       PRES   REMARKS
MONTEVIDEO     CLEAR     55  54  94 SW3       30.03S
GRANITE FALLS  PTCLDY    51  50  98 SE3       30.03S FOG
CANBY          CLEAR     57  54  90 S3        30.02S
MARSHALL       CLEAR     54  48  82 CALM      30.02S
REDWOOD FALLS  FOG       53  52  96 CALM      30.02S VSB 1/4
OLIVIA         CLEAR     50  46  87 CALM      30.02R
PIPESTONE      CLEAR     54  52  94 CALM      30.03S
WINDOM         CLOUDY    52  52 100 CALM      30.03R FOG
WORTHINGTON    CLOUDY    52  46  82 CALM      30.02S VSB 1/2
JACKSON        CLOUDY    57  55  94 NE6       30.03R FOG
TRACY          CLEAR     55  54  97 CALM      30.04R
SLAYTON          N/A     50  50 100 CALM      30.04S FOG
$$
MNZ065>067-074>077-082>085-091>093-291000-
   South Central Minnesota

CITY           SKY/WX    TMP DP  RH WIND       PRES   REMARKS
MANKATO        CLOUDY    57  54  88 E3        30.03R
NEW ULM        CLEAR     55  55 100 E3        30.02S
ST JAMES       CLOUDY    59  57  94 CALM      30.03S
FAIRMONT       CLOUDY    57  52  82 N5        30.02R
GLENCOE        CLEAR     52  52 100 CALM      30.02F FOG
FARIBAULT      CLOUDY    57  55  94 CALM      30.03R
OWATONNA       CLOUDY    57  55  94 E5        30.02R FOG
WASECA         CLOUDY    55  55 100 MISG      30.03R FOG
ALBERT LEA     FOG       59  57  94 NE6       30.00S VSB 3/4
$$
MNZ078>079-086>088-094>096-291000-
   Southeast Minnesota

CITY           SKY/WX    TMP DP  RH WIND       PRES   REMARKS
ROCHESTER      CLOUDY    58  57  97 E8        30.01S FOG
RED WING       CLEAR     55  54  94 E5        30.02S
STANTON        CLOUDY    55  53  94 CALM      30.02R FOG
DODGE CENTER   CLOUDY    55  55 100 NE3       30.01S FOG
WINONA         CLOUDY    61  57  88 CALM      30.01S
AUSTIN         FOG       61  57  88 E8        29.99S VSB 1
PRESTON        CLOUDY    58  56  95 NE3       30.01S FOG
$$
ABBREVIATIONS USED IN REMARKS
   TC - TEMPERATURES IN CELSIUS
  WCI - WIND CHILL INDEX
   HX - HEAT INDEX
  VSB - VISIBILITY
$$


USA.gov is the U.S. government's official web portal to all federal, state and local government web resources and services.